{"data":{"norad_id":68910,"epoch":"2026-09-19T23:58:30.322848Z","epoch_age_seconds":58731,"freshness":"FRESH","line1":"1 68910U 26097R   26262.99896207  .00011631  00000+0  36202-3 0  9993","line2":"2 68910  97.2848  97.1263 0001318  87.2612 272.8782 15.33447714 22011","mean_motion":15.33447714,"eccentricity":0.0001318,"inclination_deg":97.2848,"raan_deg":97.1263,"arg_perigee_deg":87.2612,"mean_anomaly_deg":272.8782,"bstar":0.00036202,"rev_number":2201,"period_min":93.906038455251,"perigee_km":464.63310355278,"apogee_km":466.43709551822,"semimajor_km":6843.6720995355,"source":"CELESTRAK","updated_at":"2026-09-20T09:00:44.049102Z"}}